TCA7378 TJSJ-SKRG

Flight info

Callsign TCA7378
Flight time N/A
Altitude 36000
Route GANBO1 SCAPA UL325 MADNO DCT ENLOS UL325 IROSA DCT SALKA DCT ENPUT UW1 CUC UW26 DIPRA DIPRA3B
Aircraft B738/M-SDE2E3FGHIRWXY/LB1

Departure

Time N/A
Airport Luis Munoz Marin International Airport (TJSJ)

Arrival

Time 2026-05-03 20:46
Airport Jose Maria Córdova International Airport (SKRG)
Time Latitude Longitude Altitude Speed Heading
2026-05-03 20:15 7.50005 -73.13410 35987 ft 468 kts 235°
2026-05-03 20:15 7.46252 -73.18772 35996 ft 469 kts 235°
2026-05-03 20:16 7.42492 -73.24139 35998 ft 469 kts 235°
2026-05-03 20:16 7.38752 -73.29480 35986 ft 470 kts 235°
2026-05-03 20:17 7.34983 -73.34860 35978 ft 470 kts 235°
2026-05-03 20:17 7.31216 -73.40235 35984 ft 470 kts 235°
2026-05-03 20:18 7.27448 -73.45617 35963 ft 471 kts 235°
2026-05-03 20:18 7.23692 -73.50974 35949 ft 471 kts 235°
2026-05-03 20:19 7.19906 -73.56369 35926 ft 472 kts 235°
2026-05-03 20:19 7.16115 -73.61771 35897 ft 472 kts 235°
2026-05-03 20:20 7.12323 -73.67172 35870 ft 472 kts 234°
2026-05-03 20:20 7.08559 -73.72536 35857 ft 472 kts 235°
2026-05-03 20:21 7.04775 -73.77926 35837 ft 471 kts 235°
2026-05-03 20:21 7.01173 -73.83425 35837 ft 470 kts 240°
2026-05-03 20:22 6.97994 -73.89165 35830 ft 469 kts 242°
2026-05-03 20:22 6.94875 -73.94880 35827 ft 469 kts 241°
2026-05-03 20:23 6.91700 -74.00603 35836 ft 468 kts 241°
2026-05-03 20:23 6.88504 -74.06309 35843 ft 468 kts 240°
2026-05-03 20:24 6.85305 -74.12010 35855 ft 467 kts 240°
2026-05-03 20:24 6.82135 -74.17661 35864 ft 467 kts 240°
2026-05-03 20:25 6.78936 -74.23358 35894 ft 468 kts 240°
2026-05-03 20:25 6.75737 -74.29063 35912 ft 468 kts 240°
2026-05-03 20:26 6.72533 -74.34774 35894 ft 469 kts 240°
2026-05-03 20:26 6.70913 -74.37660 35318 ft 476 kts 240°
2026-05-03 20:26 6.69312 -74.40509 34692 ft 473 kts 240°
2026-05-03 20:26 6.67699 -74.43383 34018 ft 472 kts 241°
2026-05-03 20:27 6.66081 -74.46265 33326 ft 472 kts 240°
2026-05-03 20:27 6.64471 -74.49133 32611 ft 472 kts 240°
2026-05-03 20:27 6.62857 -74.52005 31886 ft 471 kts 240°
2026-05-03 20:27 6.61270 -74.54865 31381 ft 466 kts 243°
2026-05-03 20:28 6.60006 -74.57851 30802 ft 463 kts 249°
2026-05-03 20:28 6.58954 -74.60889 30281 ft 458 kts 251°
2026-05-03 20:28 6.57982 -74.63875 29773 ft 453 kts 251°
2026-05-03 20:28 6.57009 -74.66868 29256 ft 448 kts 251°
2026-05-03 20:29 6.56028 -74.69820 28742 ft 443 kts 250°
2026-05-03 20:29 6.55035 -74.72734 28237 ft 438 kts 250°
2026-05-03 20:29 6.54039 -74.75610 27721 ft 433 kts 250°
2026-05-03 20:29 6.53044 -74.78454 27241 ft 429 kts 250°
2026-05-03 20:30 6.52056 -74.81268 26739 ft 425 kts 250°
2026-05-03 20:30 6.51077 -74.84049 26249 ft 421 kts 249°
2026-05-03 20:30 6.50115 -74.86783 25766 ft 418 kts 249°
2026-05-03 20:30 6.49141 -74.89554 25271 ft 414 kts 249°
2026-05-03 20:31 6.48198 -74.92240 24779 ft 411 kts 249°
2026-05-03 20:31 6.47249 -74.94943 24276 ft 409 kts 249°
2026-05-03 20:31 6.46306 -74.97628 23789 ft 406 kts 249°
2026-05-03 20:31 6.45369 -75.00298 23303 ft 403 kts 249°
2026-05-03 20:32 6.44440 -75.02940 22829 ft 400 kts 249°
2026-05-03 20:32 6.43515 -75.05571 22356 ft 397 kts 249°
2026-05-03 20:32 6.42598 -75.08180 21889 ft 394 kts 249°
2026-05-03 20:32 6.41685 -75.10776 21415 ft 392 kts 249°
2026-05-03 20:33 6.40759 -75.13294 20969 ft 388 kts 243°
2026-05-03 20:33 6.39216 -75.15456 20536 ft 379 kts 220°
2026-05-03 20:33 6.37103 -75.16977 20074 ft 372 kts 204°
2026-05-03 20:33 6.34689 -75.17844 19642 ft 366 kts 193°
2026-05-03 20:34 6.32238 -75.18511 19179 ft 364 kts 192°
2026-05-03 20:34 6.29795 -75.19145 18732 ft 361 kts 192°
2026-05-03 20:34 6.27369 -75.19774 18288 ft 359 kts 192°
2026-05-03 20:34 6.24961 -75.20407 17852 ft 357 kts 192°
2026-05-03 20:35 6.22602 -75.21036 17427 ft 354 kts 192°
2026-05-03 20:35 6.20229 -75.21675 16988 ft 352 kts 193°
2026-05-03 20:35 6.17870 -75.22314 16547 ft 350 kts 193°
2026-05-03 20:35 6.15525 -75.22951 16113 ft 349 kts 193°
2026-05-03 20:36 6.13225 -75.23575 15524 ft 353 kts 193°
2026-05-03 20:36 6.10859 -75.24220 15058 ft 351 kts 193°
2026-05-03 20:36 6.08535 -75.24855 14723 ft 338 kts 193°
2026-05-03 20:36 6.06327 -75.25457 14517 ft 320 kts 193°
2026-05-03 20:37 6.04234 -75.26028 14370 ft 304 kts 193°
2026-05-03 20:37 6.02213 -75.26578 14245 ft 300 kts 193°
2026-05-03 20:37 6.00222 -75.27120 14129 ft 303 kts 193°
2026-05-03 20:37 5.98180 -75.27674 14013 ft 305 kts 193°
2026-05-03 20:38 5.96145 -75.28228 13888 ft 299 kts 193°
2026-05-03 20:38 5.94185 -75.28762 13776 ft 285 kts 193°
2026-05-03 20:38 5.92325 -75.29269 13638 ft 267 kts 193°
2026-05-03 20:38 5.90588 -75.29742 13528 ft 251 kts 193°
2026-05-03 20:39 5.89015 -75.30365 13391 ft 239 kts 214°
2026-05-03 20:39 5.87997 -75.31621 13221 ft 230 kts 245°
2026-05-03 20:39 5.87612 -75.33134 13033 ft 228 kts 266°
2026-05-03 20:39 5.87589 -75.34708 12922 ft 226 kts 269°
2026-05-03 20:40 5.87583 -75.36303 12716 ft 230 kts 269°
2026-05-03 20:40 5.87577 -75.37919 12482 ft 233 kts 269°
2026-05-03 20:40 5.87588 -75.39549 12237 ft 235 kts 275°
2026-05-03 20:40 5.88209 -75.41021 12014 ft 228 kts 316°
2026-05-03 20:41 5.89565 -75.41717 11855 ft 221 kts 351°
2026-05-03 20:41 5.91097 -75.41959 11568 ft 225 kts 354°
2026-05-03 20:41 5.92660 -75.42111 11274 ft 226 kts 358°
2026-05-03 20:41 5.94208 -75.42164 10973 ft 224 kts
2026-05-03 20:42 5.95752 -75.42179 10668 ft 220 kts
2026-05-03 20:42 5.97267 -75.42187 10392 ft 216 kts
2026-05-03 20:42 5.98748 -75.42198 10107 ft 208 kts 360°
2026-05-03 20:42 6.00149 -75.42207 9840 ft 195 kts
2026-05-03 20:43 6.01468 -75.42215 9586 ft 185 kts
2026-05-03 20:43 6.02725 -75.42223 9343 ft 179 kts
2026-05-03 20:43 6.03948 -75.42230 9114 ft 177 kts
2026-05-03 20:43 6.05179 -75.42238 8872 ft 177 kts
2026-05-03 20:44 6.06405 -75.42246 8649 ft 176 kts
2026-05-03 20:44 6.07620 -75.42254 8408 ft 173 kts 360°
2026-05-03 20:44 6.08812 -75.42261 8182 ft 170 kts 360°
2026-05-03 20:44 6.10010 -75.42270 7962 ft 174 kts 360°
2026-05-03 20:45 6.11215 -75.42277 7727 ft 173 kts 360°
2026-05-03 20:45 6.12414 -75.42285 7498 ft 172 kts 360°
2026-05-03 20:45 6.13606 -75.42293 7272 ft 171 kts 360°
2026-05-03 20:45 6.14772 -75.42288 7059 ft 169 kts 359°
2026-05-03 20:46 6.15893 -75.42307 6978 ft 140 kts 359°
2026-05-03 20:46 6.16649 -75.42311 6992 ft 78 kts 359°
2026-05-03 20:46 6.16977 -75.42342 7007 ft 27 kts 337°
2026-05-03 20:46 6.17121 -75.42421 7013 ft 21 kts 329°
2026-05-03 20:47 6.17185 -75.42506 7012 ft 14 kts 273°
2026-05-03 20:47 6.17175 -75.42593 7017 ft 9 kts 240°
2026-05-03 20:47 6.17134 -75.42616 7016 ft 7 kts 185°
2026-05-03 20:47 6.17098 -75.42643 7021 ft 7 kts 253°
2026-05-03 20:48 6.17100 -75.42683 7019 ft 2 kts 280°